Location: Asheville, NC
(35.6000°N, 82.5500°W)
Time: 15:01:46
(UTC-05:00)

XW-2D - Pass Details

Date: 06 January 2018
Orbit: 511 x 530 km, 97.5° (Epoch: 17 January)

Event Time Altitude Azimuth Distance (km) Brightness Sun altitude
Rises 06:56:33 0° 3° (N) 2,654 ? -8.9°
Reaches altitude 10° 06:58:44 10° 356° (N) 1,758 ? -8.5°
Maximum altitude 07:02:18 41° 286° (WNW) 761 ? -7.9°
Drops below altitude 10° 07:05:50 10° 215° (SW) 1,735 ? -7.2°
Sets 07:07:59 0° 208° (SSW) 2,614 ? -6.8°
